Time,TemperatureF,DewpointF,PressureIn,WindDirection,WindDirectionDegrees,WindSpeedMPH,WindSpeedGustMPH,Humidity,HourlyPrecipIn,Conditions,Clouds,dailyrainin,SoftwareType,DateUTC
2013-02-23 00:00:00,32.4,5.1,29.70,SSW,210,0.0,0.0,31,0.00,,,0.00,VWS V14.01,2013-02-23 08:00:00,
2013-02-23 00:06:00,32.5,5.3,29.73,SSW,210,0.0,0.0,31,0.00,,,0.00,VWS V14.01,2013-02-23 08:06:00,
2013-02-23 00:12:00,32.5,5.3,29.73,SSW,210,0.0,0.0,31,0.00,,,0.00,VWS V14.01,2013-02-23 08:12:00,
2013-02-23 00:17:00,32.4,5.1,29.73,SSW,210,0.0,0.0,31,0.00,,,0.00,VWS V14.01,2013-02-23 08:17:00,
2013-02-23 00:23:00,32.4,5.1,29.73,SSW,210,0.0,0.0,31,0.00,,,0.00,VWS V14.01,2013-02-23 08:23:00,
2013-02-23 00:28:00,32.4,5.1,29.73,SSW,210,0.0,0.0,31,0.00,,,0.00,VWS V14.01,2013-02-23 08:28:00,
2013-02-23 00:33:00,32.4,5.1,29.73,SSW,210,0.0,0.0,31,0.00,,,0.00,VWS V14.01,2013-02-23 08:33:00,
2013-02-23 00:39:00,32.4,5.1,29.73,SSW,210,0.0,0.0,31,0.00,,,0.00,VWS V14.01,2013-02-23 08:39:00,
2013-02-23 00:45:00,32.2,5.0,29.73,SSW,210,0.0,0.0,31,0.00,,,0.00,VWS V14.01,2013-02-23 08:45:00,
2013-02-23 00:50:00,32.4,5.1,29.73,SSW,210,0.0,0.0,31,0.00,,,0.00,VWS V14.01,2013-02-23 08:50:00,
2013-02-23 00:56:00,32.7,5.4,29.73,SSW,198,0.0,0.0,31,0.00,,,0.00,VWS V14.01,2013-02-23 08:56:00,
2013-02-23 01:02:00,32.5,5.3,29.73,SSW,198,0.0,0.0,31,0.00,,,0.00,VWS V14.01,2013-02-23 09:02:00,
2013-02-23 01:08:00,32.5,5.3,29.73,SSW,198,0.0,0.0,31,0.00,,,0.00,VWS V14.01,2013-02-23 09:08:00,
2013-02-23 01:13:00,32.4,5.1,29.73,SSW,198,0.0,0.0,31,0.00,,,0.00,VWS V14.01,2013-02-23 09:13:00,
2013-02-23 01:18:00,32.4,5.1,29.73,SSW,198,0.0,0.0,31,0.00,,,0.00,VWS V14.01,2013-02-23 09:18:00,
2013-02-23 01:23:00,32.2,5.0,29.73,SSW,198,0.0,0.0,31,0.00,,,0.00,VWS V14.01,2013-02-23 09:23:00,
2013-02-23 01:29:00,32.5,5.3,29.73,SSW,198,0.0,0.0,31,0.00,,,0.00,VWS V14.01,2013-02-23 09:29:00,
2013-02-23 01:35:00,32.5,5.3,29.73,SSW,198,0.0,0.0,31,0.00,,,0.00,VWS V14.01,2013-02-23 09:35:00,
2013-02-23 01:40:00,32.5,5.3,29.76,SSW,198,0.0,0.0,31,0.00,,,0.00,VWS V14.01,2013-02-23 09:40:00,
2013-02-23 01:46:00,32.7,5.4,29.76,SSW,198,0.0,0.0,31,0.00,,,0.00,VWS V14.01,2013-02-23 09:46:00,
2013-02-23 01:52:00,32.5,5.3,29.76,SSW,198,0.0,0.0,31,0.00,,,0.00,VWS V14.01,2013-02-23 09:52:00,
2013-02-23 01:58:00,32.5,5.3,29.76,SSW,198,0.0,0.0,31,0.00,,,0.00,VWS V14.01,2013-02-23 09:58:00,
2013-02-23 02:03:00,32.5,5.3,29.76,SSW,197,0.0,0.0,31,0.00,,,0.00,VWS V14.01,2013-02-23 10:03:00,
2013-02-23 02:09:00,32.5,5.3,29.76,SSW,197,0.0,0.0,31,0.00,,,0.00,VWS V14.01,2013-02-23 10:09:00,
2013-02-23 02:14:00,32.7,5.4,29.76,SSW,198,0.0,0.0,31,0.00,,,0.00,VWS V14.01,2013-02-23 10:14:00,
2013-02-23 02:20:00,32.5,5.3,29.76,SSW,197,0.0,0.0,31,0.00,,,0.00,VWS V14.01,2013-02-23 10:20:00,
2013-02-23 02:26:00,32.5,5.3,29.76,SSW,197,0.0,0.0,31,0.00,,,0.00,VWS V14.01,2013-02-23 10:26:00,
2013-02-23 02:31:00,32.5,5.3,29.76,SSW,196,0.0,0.0,31,0.00,,,0.00,VWS V14.01,2013-02-23 10:31:00,
2013-02-23 02:37:00,32.5,5.3,29.76,SSW,196,0.0,0.0,31,0.00,,,0.00,VWS V14.01,2013-02-23 10:37:00,
2013-02-23 02:42:00,32.7,5.4,29.76,SSW,196,0.0,0.0,31,0.00,,,0.00,VWS V14.01,2013-02-23 10:42:00,
2013-02-23 02:48:00,32.7,5.4,29.76,SSW,196,0.0,0.0,31,0.00,,,0.00,VWS V14.01,2013-02-23 10:48:00,
2013-02-23 02:53:00,32.5,5.3,29.79,SSW,196,0.0,0.0,31,0.00,,,0.00,VWS V14.01,2013-02-23 10:53:00,
2013-02-23 02:58:00,32.7,5.4,29.79,SSW,196,0.0,0.0,31,0.00,,,0.00,VWS V14.01,2013-02-23 10:58:00,
2013-02-23 03:04:00,32.9,5.6,29.79,SSW,196,0.0,0.0,31,0.00,,,0.00,VWS V14.01,2013-02-23 11:04:00,
2013-02-23 03:10:00,32.9,5.6,29.79,SSW,195,0.0,0.0,31,0.00,,,0.00,VWS V14.01,2013-02-23 11:10:00,
2013-02-23 03:15:00,32.9,5.6,29.79,SSW,195,0.0,0.0,31,0.00,,,0.00,VWS V14.01,2013-02-23 11:15:00,
2013-02-23 03:21:00,32.5,5.3,29.79,SSW,195,0.0,0.0,31,0.00,,,0.00,VWS V14.01,2013-02-23 11:21:00,
2013-02-23 03:27:00,32.5,4.6,29.79,SSW,195,0.0,0.0,30,0.00,,,0.00,VWS V14.01,2013-02-23 11:27:00,
2013-02-23 03:32:00,32.9,5.6,29.79,SSW,195,0.0,0.0,31,0.00,,,0.00,VWS V14.01,2013-02-23 11:32:00,
2013-02-23 03:38:00,32.7,5.4,29.79,SSW,194,0.0,0.0,31,0.00,,,0.00,VWS V14.01,2013-02-23 11:38:00,
2013-02-23 03:43:00,32.7,5.4,29.79,SSW,194,0.0,0.0,31,0.00,,,0.00,VWS V14.01,2013-02-23 11:43:00,
2013-02-23 03:48:00,32.7,5.4,29.79,SSW,194,0.0,0.0,31,0.00,,,0.00,VWS V14.01,2013-02-23 11:48:00,
2013-02-23 03:54:00,32.7,5.4,29.79,SSW,193,0.0,0.0,31,0.00,,,0.00,VWS V14.01,2013-02-23 11:54:00,
2013-02-23 03:59:00,32.5,5.3,29.79,SSW,193,0.0,0.0,31,0.00,,,0.00,VWS V14.01,2013-02-23 11:59:00,
2013-02-23 04:05:00,32.5,5.3,29.79,SSW,193,0.0,0.0,31,0.00,,,0.00,VWS V14.01,2013-02-23 12:05:00,
2013-02-23 04:11:00,32.7,5.4,29.79,SSW,193,0.0,0.0,31,0.00,,,0.00,VWS V14.01,2013-02-23 12:11:00,
2013-02-23 04:16:00,33.1,5.0,29.79,SSW,193,0.0,0.0,30,0.00,,,0.00,VWS V14.01,2013-02-23 12:16:00,
2013-02-23 04:21:00,32.5,4.6,29.79,SSW,192,0.0,0.0,30,0.00,,,0.00,VWS V14.01,2013-02-23 12:21:00,
2013-02-23 04:26:00,32.7,4.7,29.79,SSW,192,0.0,0.0,30,0.00,,,0.00,VWS V14.01,2013-02-23 12:26:00,
2013-02-23 04:32:00,32.9,4.9,29.79,SSW,192,0.0,0.0,30,0.00,,,0.00,VWS V14.01,2013-02-23 12:32:00,
2013-02-23 04:37:00,32.7,4.7,29.79,West,271,0.0,0.0,30,0.00,,,0.00,VWS V14.01,2013-02-23 12:37:00,
2013-02-23 04:43:00,32.7,4.7,29.79,West,262,0.0,0.0,30,0.00,,,0.00,VWS V14.01,2013-02-23 12:43:00,
2013-02-23 04:48:00,32.7,4.7,29.79,SW,233,0.0,0.0,30,0.00,,,0.00,VWS V14.01,2013-02-23 12:48:00,
2013-02-23 04:54:00,32.7,4.7,29.82,WSW,247,0.0,0.0,30,0.00,,,0.00,VWS V14.01,2013-02-23 12:54:00,
2013-02-23 04:59:00,33.1,5.0,29.82,WSW,252,0.0,0.0,30,0.00,,,0.00,VWS V14.01,2013-02-23 12:59:00,
2013-02-23 05:04:00,32.9,4.9,29.82,WSW,251,0.0,0.0,30,0.00,,,0.00,VWS V14.01,2013-02-23 13:04:00,
2013-02-23 05:10:00,32.9,4.9,29.82,WSW,246,0.0,0.0,30,0.00,,,0.00,VWS V14.01,2013-02-23 13:10:00,
2013-02-23 05:16:00,33.1,5.0,29.82,SW,215,0.0,0.0,30,0.00,,,0.00,VWS V14.01,2013-02-23 13:16:00,
2013-02-23 05:21:00,33.3,5.2,29.82,SW,236,0.0,0.0,30,0.00,,,0.00,VWS V14.01,2013-02-23 13:21:00,
2013-02-23 05:27:00,33.3,5.2,29.82,WSW,238,0.0,0.0,30,0.00,,,0.00,VWS V14.01,2013-02-23 13:27:00,
2013-02-23 05:32:00,33.1,5.0,29.82,SW,217,0.0,0.0,30,0.00,,,0.00,VWS V14.01,2013-02-23 13:32:00,
2013-02-23 05:38:00,33.1,5.8,29.82,SSW,195,0.0,0.0,31,0.00,,,0.00,VWS V14.01,2013-02-23 13:38:00,
2013-02-23 05:43:00,32.7,5.4,29.82,WSW,238,0.0,0.0,31,0.00,,,0.00,VWS V14.01,2013-02-23 13:43:00,
2013-02-23 05:49:00,32.5,5.3,29.82,WSW,249,0.0,0.0,31,0.00,,,0.00,VWS V14.01,2013-02-23 13:49:00,
2013-02-23 05:54:00,32.5,4.6,29.85,NW,305,0.0,0.0,30,0.00,,,0.00,VWS V14.01,2013-02-23 13:54:00,
2013-02-23 05:59:00,32.5,4.6,29.85,West,266,0.0,0.0,30,0.00,,,0.00,VWS V14.01,2013-02-23 13:59:00,
2013-02-23 06:05:00,32.5,4.6,29.85,SSW,213,0.0,0.0,30,0.00,,,0.00,VWS V14.01,2013-02-23 14:05:00,
2013-02-23 06:10:00,32.7,4.7,29.85,SW,236,0.0,0.0,30,0.00,,,0.00,VWS V14.01,2013-02-23 14:10:00,
2013-02-23 06:15:00,32.7,4.7,29.85,SSE,151,0.0,0.0,30,0.00,,,0.00,VWS V14.01,2013-02-23 14:15:00,
2013-02-23 06:21:00,32.7,5.4,29.85,South,185,0.0,0.0,31,0.00,,,0.00,VWS V14.01,2013-02-23 14:21:00,
2013-02-23 06:26:00,32.7,5.4,29.85,SW,224,0.0,0.0,31,0.00,,,0.00,VWS V14.01,2013-02-23 14:26:00,
2013-02-23 06:32:00,32.7,5.4,29.85,West,262,0.0,0.0,31,0.00,,,0.00,VWS V14.01,2013-02-23 14:32:00,
2013-02-23 06:37:00,32.7,5.4,29.85,SW,216,0.0,0.0,31,0.00,,,0.00,VWS V14.01,2013-02-23 14:37:00,
2013-02-23 06:43:00,32.9,5.6,29.85,SW,221,0.0,0.0,31,0.00,,,0.00,VWS V14.01,2013-02-23 14:43:00,
2013-02-23 06:48:00,32.9,5.6,29.85,SW,224,0.0,0.0,31,0.00,,,0.00,VWS V14.01,2013-02-23 14:48:00,
2013-02-23 06:53:00,33.1,5.8,29.85,SSW,212,0.0,0.0,31,0.00,,,0.00,VWS V14.01,2013-02-23 14:53:00,
2013-02-23 06:58:00,32.9,5.6,29.85,SW,219,0.0,0.0,31,0.00,,,0.00,VWS V14.01,2013-02-23 14:58:00,
2013-02-23 07:03:00,32.7,5.4,29.85,SW,229,0.0,0.0,31,0.00,,,0.00,VWS V14.01,2013-02-23 15:03:00,
2013-02-23 07:09:00,32.7,4.7,29.88,SSW,208,0.0,0.0,30,0.00,,,0.00,VWS V14.01,2013-02-23 15:09:00,
2013-02-23 07:14:00,32.9,4.9,29.88,WSW,237,0.0,0.0,30,0.00,,,0.00,VWS V14.01,2013-02-23 15:14:00,
2013-02-23 07:19:00,33.1,5.8,29.88,North,4,0.0,0.0,31,0.00,,,0.00,VWS V14.01,2013-02-23 15:19:00,
2013-02-23 07:24:00,33.1,5.8,29.88,WSW,239,0.0,0.0,31,0.00,,,0.00,VWS V14.01,2013-02-23 15:24:00,
2013-02-23 07:30:00,33.1,5.8,29.88,SW,236,0.0,0.0,31,0.00,,,0.00,VWS V14.01,2013-02-23 15:30:00,
2013-02-23 07:36:00,33.3,5.2,29.88,SW,227,0.0,0.0,30,0.00,,,0.00,VWS V14.01,2013-02-23 15:36:00,
2013-02-23 07:41:00,33.1,5.0,29.88,SW,221,0.0,0.0,30,0.00,,,0.00,VWS V14.01,2013-02-23 15:41:00,
2013-02-23 07:46:00,33.1,5.8,29.88,SW,226,0.0,0.0,31,0.00,,,0.00,VWS V14.01,2013-02-23 15:46:00,
2013-02-23 07:52:00,32.9,5.6,29.91,SW,221,0.0,0.0,31,0.00,,,0.00,VWS V14.01,2013-02-23 15:52:00,
2013-02-23 07:57:00,33.1,5.8,29.91,SW,232,0.0,0.0,31,0.00,,,0.00,VWS V14.01,2013-02-23 15:57:00,
2013-02-23 08:03:00,33.1,5.8,29.91,SW,222,0.0,0.0,31,0.00,,,0.00,VWS V14.01,2013-02-23 16:03:00,
2013-02-23 08:09:00,33.1,5.8,29.91,WSW,242,0.0,0.0,31,0.00,,,0.00,VWS V14.01,2013-02-23 16:09:00,
2013-02-23 08:14:00,33.1,5.8,29.91,SSE,164,0.0,0.0,31,0.00,,,0.00,VWS V14.01,2013-02-23 16:14:00,
2013-02-23 08:20:00,33.1,5.8,29.91,WNW,290,0.0,0.0,31,0.00,,,0.00,VWS V14.01,2013-02-23 16:20:00,
2013-02-23 08:25:00,33.3,5.9,29.91,SW,235,0.0,0.0,31,0.00,,,0.00,VWS V14.01,2013-02-23 16:25:00,
2013-02-23 08:31:00,33.3,5.9,29.91,WSW,256,0.0,0.0,31,0.00,,,0.00,VWS V14.01,2013-02-23 16:31:00,
2013-02-23 08:36:00,33.4,6.1,29.91,NW,315,0.0,0.0,31,0.00,,,0.00,VWS V14.01,2013-02-23 16:36:00,
2013-02-23 08:42:00,33.6,6.2,29.91,SW,219,0.0,0.0,31,0.00,,,0.00,VWS V14.01,2013-02-23 16:42:00,
2013-02-23 08:47:00,33.4,6.1,29.91,SSW,201,0.0,0.0,31,0.00,,,0.00,VWS V14.01,2013-02-23 16:47:00,
2013-02-23 08:52:00,33.6,6.2,29.91,SW,227,0.0,0.0,31,0.00,,,0.00,VWS V14.01,2013-02-23 16:52:00,
2013-02-23 08:58:00,33.4,6.1,29.94,WNW,291,0.0,0.0,31,0.00,,,0.00,VWS V14.01,2013-02-23 16:58:00,
2013-02-23 09:03:00,33.6,6.2,29.94,SW,224,0.0,0.0,31,0.00,,,0.00,VWS V14.01,2013-02-23 17:03:00,
2013-02-23 09:08:00,33.6,6.2,29.94,SW,221,0.0,0.0,31,0.00,,,0.00,VWS V14.01,2013-02-23 17:08:00,
2013-02-23 09:13:00,33.6,6.2,29.94,SW,226,0.0,0.0,31,0.00,,,0.00,VWS V14.01,2013-02-23 17:13:00,
2013-02-23 09:18:00,33.6,6.2,29.94,WSW,249,0.0,0.0,31,0.00,,,0.00,VWS V14.01,2013-02-23 17:18:00,
2013-02-23 09:23:00,33.6,6.2,29.94,WSW,253,0.0,0.0,31,0.00,,,0.00,VWS V14.01,2013-02-23 17:23:00,
2013-02-23 09:28:00,33.6,6.2,29.94,SW,228,0.0,0.0,31,0.00,,,0.00,VWS V14.01,2013-02-23 17:28:00,
2013-02-23 09:34:00,33.6,6.2,29.94,WSW,238,0.0,0.0,31,0.00,,,0.00,VWS V14.01,2013-02-23 17:34:00,
2013-02-23 09:39:00,33.6,6.2,29.94,SSW,212,0.0,0.0,31,0.00,,,0.00,VWS V14.01,2013-02-23 17:39:00,
2013-02-23 09:46:00,34.0,5.8,29.94,WSW,251,0.0,0.0,30,0.00,,,0.00,VWS V14.01,2013-02-23 17:46:00,
2013-02-23 09:51:00,34.0,5.8,29.94,SW,234,4.0,11.0,30,0.00,,,0.00,VWS V14.01,2013-02-23 17:51:00,
2013-02-23 09:56:00,34.2,6.0,29.97,West,278,0.0,0.0,30,0.00,,,0.00,VWS V14.01,2013-02-23 17:56:00,
2013-02-23 10:02:00,34.0,5.8,29.97,SW,230,2.7,6.3,30,0.00,,,0.00,VWS V14.01,2013-02-23 18:02:00,
2013-02-23 10:07:00,34.3,6.1,29.97,WSW,254,7.2,10.5,30,0.00,,,0.00,VWS V14.01,2013-02-23 18:07:00,
2013-02-23 10:13:00,34.3,6.1,29.97,SSW,201,5.8,5.8,30,0.00,,,0.00,VWS V14.01,2013-02-23 18:13:00,
2013-02-23 10:18:00,34.5,6.3,29.97,SW,222,8.7,8.7,30,0.00,,,0.00,VWS V14.01,2013-02-23 18:18:00,
2013-02-23 10:24:00,34.3,6.1,29.97,WSW,244,3.6,6.3,30,0.00,,,0.00,VWS V14.01,2013-02-23 18:24:00,
2013-02-23 10:29:00,34.3,6.1,29.97,SW,225,3.6,5.4,30,0.00,,,0.00,VWS V14.01,2013-02-23 18:29:00,
2013-02-23 10:34:00,34.3,6.1,29.97,SW,214,7.2,7.2,30,0.00,,,0.00,VWS V14.01,2013-02-23 18:34:00,
2013-02-23 10:40:00,34.3,6.1,29.97,SW,219,0.0,4.0,30,0.00,,,0.00,VWS V14.01,2013-02-23 18:40:00,
2013-02-23 10:45:00,34.5,6.3,29.97,SW,232,0.0,3.1,30,0.00,,,0.00,VWS V14.01,2013-02-23 18:45:00,
2013-02-23 10:50:00,35.1,6.8,29.97,SW,216,5.4,6.3,30,0.00,,,0.00,VWS V14.01,2013-02-23 18:50:00,
2013-02-23 10:56:00,35.4,7.1,29.97,SW,220,8.3,8.3,30,0.04,,,0.04,VWS V14.01,2013-02-23 18:56:00,
2013-02-23 11:02:00,35.8,7.4,29.97,SW,236,6.3,7.6,30,0.04,,,0.04,VWS V14.01,2013-02-23 19:02:00,
2013-02-23 11:07:00,36.0,7.6,30.00,SW,215,6.3,6.3,30,0.04,,,0.04,VWS V14.01,2013-02-23 19:07:00,
2013-02-23 11:12:00,35.8,7.4,30.00,SSW,203,3.6,3.6,30,0.08,,,0.08,VWS V14.01,2013-02-23 19:12:00,
2013-02-23 11:18:00,35.6,7.2,30.00,SW,221,7.6,8.3,30,0.08,,,0.08,VWS V14.01,2013-02-23 19:18:00,
2013-02-23 11:23:00,36.0,7.6,30.00,SSW,197,10.1,10.1,30,0.08,,,0.08,VWS V14.01,2013-02-23 19:23:00,
2013-02-23 11:28:00,35.8,7.4,30.00,WSW,240,6.3,11.0,30,0.12,,,0.12,VWS V14.01,2013-02-23 19:28:00,
2013-02-23 11:33:00,35.8,7.4,30.00,West,275,0.0,6.3,30,0.12,,,0.12,VWS V14.01,2013-02-23 19:33:00,
2013-02-23 11:38:00,35.6,7.2,30.00,SSW,213,5.4,6.7,30,0.12,,,0.12,VWS V14.01,2013-02-23 19:38:00,
2013-02-23 11:44:00,35.6,7.2,30.00,SW,219,2.7,5.4,30,0.12,,,0.12,VWS V14.01,2013-02-23 19:44:00,
2013-02-23 11:50:00,35.6,7.2,30.00,SW,226,5.4,5.4,30,0.12,,,0.12,VWS V14.01,2013-02-23 19:50:00,
2013-02-23 11:56:00,36.0,7.6,30.00,SSW,211,8.7,8.7,30,0.12,,,0.16,VWS V14.01,2013-02-23 19:56:00,
2013-02-23 12:01:00,36.0,7.6,30.00,WSW,240,7.2,7.6,30,0.12,,,0.16,VWS V14.01,2013-02-23 20:01:00,
2013-02-23 12:07:00,36.3,7.9,30.00,South,176,6.7,8.1,30,0.12,,,0.16,VWS V14.01,2013-02-23 20:07:00,
2013-02-23 12:13:00,36.5,8.0,30.00,SW,218,8.1,8.1,30,0.12,,,0.20,VWS V14.01,2013-02-23 20:13:00,
2013-02-23 12:18:00,36.7,8.2,30.00,SW,222,6.3,6.3,30,0.12,,,0.20,VWS V14.01,2013-02-23 20:18:00,
2013-02-23 12:23:00,36.7,8.2,30.00,SW,232,8.7,8.7,30,0.12,,,0.20,VWS V14.01,2013-02-23 20:23:00,
2013-02-23 12:29:00,37.0,8.5,30.00,SW,223,6.3,10.1,30,0.12,,,0.24,VWS V14.01,2013-02-23 20:29:00,
2013-02-23 12:35:00,37.4,8.1,30.00,WSW,250,8.3,12.3,29,0.12,,,0.24,VWS V14.01,2013-02-23 20:35:00,
2013-02-23 12:40:00,37.9,8.5,30.00,SW,214,5.8,9.2,29,0.12,,,0.24,VWS V14.01,2013-02-23 20:40:00,
2013-02-23 12:46:00,37.6,8.2,30.00,SW,223,10.1,10.1,29,0.16,,,0.28,VWS V14.01,2013-02-23 20:46:00,
2013-02-23 12:52:00,37.4,8.1,30.03,SW,225,7.6,7.6,29,0.16,,,0.28,VWS V14.01,2013-02-23 20:52:00,
2013-02-23 12:57:00,37.2,8.6,30.03,SW,229,6.3,8.7,30,0.12,,,0.28,VWS V14.01,2013-02-23 20:57:00,
2013-02-23 13:02:00,37.0,8.5,30.03,SSW,206,6.3,6.3,30,0.12,,,0.28,VWS V14.01,2013-02-23 21:02:00,
2013-02-23 13:08:00,37.6,8.2,30.00,SSW,200,7.6,7.6,29,0.16,,,0.31,VWS V14.01,2013-02-23 21:08:00,
2013-02-23 13:13:00,36.7,8.2,30.00,SW,230,8.1,8.1,30,0.12,,,0.31,VWS V14.01,2013-02-23 21:13:00,
2013-02-23 13:19:00,37.0,8.5,30.00,SW,222,6.3,8.1,30,0.16,,,0.35,VWS V14.01,2013-02-23 21:19:00,
2013-02-23 13:24:00,37.4,8.1,30.03,SW,219,7.6,7.6,29,0.16,,,0.35,VWS V14.01,2013-02-23 21:24:00,
2013-02-23 13:30:00,36.9,8.3,30.03,SW,221,6.3,6.3,30,0.16,,,0.39,VWS V14.01,2013-02-23 21:30:00,
2013-02-23 13:35:00,37.2,8.6,30.03,West,280,8.1,8.1,30,0.16,,,0.39,VWS V14.01,2013-02-23 21:35:00,
2013-02-23 13:41:00,37.6,8.2,30.03,SW,214,6.3,6.7,29,0.16,,,0.39,VWS V14.01,2013-02-23 21:41:00,
2013-02-23 13:46:00,37.9,8.5,30.03,SSW,212,5.8,5.8,29,0.16,,,0.43,VWS V14.01,2013-02-23 21:46:00,
2013-02-23 13:52:00,37.6,8.2,30.03,SSW,213,5.4,6.7,29,0.16,,,0.43,VWS V14.01,2013-02-23 21:52:00,
2013-02-23 13:57:00,37.4,8.1,30.03,SW,218,8.1,8.1,29,0.16,,,0.43,VWS V14.01,2013-02-23 21:57:00,
2013-02-23 14:02:00,37.9,8.5,30.03,SW,224,7.6,7.6,29,0.20,,,0.47,VWS V14.01,2013-02-23 22:02:00,
2013-02-23 14:08:00,38.5,9.0,30.03,SSW,213,8.7,8.7,29,0.16,,,0.47,VWS V14.01,2013-02-23 22:08:00,
2013-02-23 14:13:00,38.1,8.7,30.03,SW,222,5.8,5.8,29,0.16,,,0.47,VWS V14.01,2013-02-23 22:13:00,
2013-02-23 14:18:00,37.9,8.5,30.03,SW,214,8.7,8.7,29,0.20,,,0.51,VWS V14.01,2013-02-23 22:18:00,
2013-02-23 14:24:00,38.8,9.3,30.03,SW,222,8.7,8.7,29,0.16,,,0.51,VWS V14.01,2013-02-23 22:24:00,
2013-02-23 14:29:00,39.0,9.5,30.03,SW,214,8.7,9.6,29,0.16,,,0.51,VWS V14.01,2013-02-23 22:29:00,
2013-02-23 14:35:00,40.3,10.6,30.03,SSW,204,6.3,7.6,29,0.20,,,0.59,VWS V14.01,2013-02-23 22:35:00,
2013-02-23 14:41:00,40.5,10.7,30.03,SW,235,5.4,8.7,29,0.20,,,0.59,VWS V14.01,2013-02-23 22:41:00,
2013-02-23 14:46:00,42.1,11.3,30.03,SW,230,6.3,6.7,28,0.16,,,0.59,VWS V14.01,2013-02-23 22:46:00,
2013-02-23 14:52:00,41.4,10.7,30.06,SSE,163,8.1,8.1,28,0.20,,,0.63,VWS V14.01,2013-02-23 22:52:00,
2013-02-23 14:58:00,40.1,10.4,30.06,SW,220,5.4,5.4,29,0.20,,,0.63,VWS V14.01,2013-02-23 22:58:00,
2013-02-23 15:03:00,39.4,9.8,30.06,SW,222,0.0,0.0,29,0.16,,,0.63,VWS V14.01,2013-02-23 23:03:00,
2013-02-23 15:08:00,39.2,9.6,30.06,SW,217,6.3,6.3,29,0.16,,,0.63,VWS V14.01,2013-02-23 23:08:00,
2013-02-23 15:14:00,39.0,9.5,30.06,SW,219,5.8,6.3,29,0.16,,,0.63,VWS V14.01,2013-02-23 23:14:00,
2013-02-23 15:20:00,38.5,9.0,30.06,SSW,212,8.3,8.3,29,0.12,,,0.63,VWS V14.01,2013-02-23 23:20:00,
2013-02-23 15:25:00,38.1,8.7,30.06,SSW,209,5.8,8.7,29,0.12,,,0.63,VWS V14.01,2013-02-23 23:25:00,
2013-02-23 15:30:00,37.9,8.5,30.06,SW,218,5.8,5.8,29,0.12,,,0.63,VWS V14.01,2013-02-23 23:30:00,
2013-02-23 15:36:00,37.9,8.5,30.06,SSW,204,6.3,6.3,29,0.04,,,0.63,VWS V14.01,2013-02-23 23:36:00,
2013-02-23 15:42:00,37.6,8.2,30.06,SW,228,5.4,5.4,29,0.04,,,0.63,VWS V14.01,2013-02-23 23:42:00,
2013-02-23 15:47:00,37.6,8.2,30.06,SW,219,3.6,8.1,29,0.04,,,0.63,VWS V14.01,2013-02-23 23:47:00,
2013-02-23 15:52:00,37.4,8.1,30.09,SSW,208,6.7,6.7,29,0.04,,,0.63,VWS V14.01,2013-02-23 23:52:00,
2013-02-23 15:57:00,37.4,8.1,30.09,SSW,212,8.1,8.1,29,0.00,,,0.63,VWS V14.01,2013-02-23 23:57:00,
2013-02-23 16:02:00,37.2,8.6,30.09,WSW,243,6.3,12.8,30,0.00,,,0.63,VWS V14.01,2013-02-24 00:02:00,
2013-02-23 16:08:00,37.2,8.6,30.09,SSW,207,4.5,5.8,30,0.00,,,0.63,VWS V14.01,2013-02-24 00:08:00,
2013-02-23 16:13:00,37.4,8.1,30.09,SW,219,8.7,8.7,29,0.00,,,0.63,VWS V14.01,2013-02-24 00:13:00,
2013-02-23 16:18:00,37.0,8.5,30.09,SW,229,0.0,0.0,30,0.00,,,0.63,VWS V14.01,2013-02-24 00:18:00,
2013-02-23 16:24:00,37.0,8.5,30.09,SW,218,4.0,4.0,30,0.00,,,0.63,VWS V14.01,2013-02-24 00:24:00,
2013-02-23 16:30:00,36.5,8.0,30.09,SSW,200,6.7,6.7,30,0.00,,,0.63,VWS V14.01,2013-02-24 00:30:00,
2013-02-23 16:36:00,36.5,8.0,30.09,SW,217,2.7,4.0,30,0.00,,,0.63,VWS V14.01,2013-02-24 00:36:00,
2013-02-23 16:41:00,36.3,7.9,30.09,WNW,283,0.0,0.0,30,0.04,,,0.67,VWS V14.01,2013-02-24 00:41:00,
2013-02-23 16:47:00,35.8,7.4,30.09,SW,221,0.0,0.0,30,0.04,,,0.67,VWS V14.01,2013-02-24 00:47:00,
2013-02-23 16:52:00,35.6,7.2,30.09,SW,221,0.0,5.4,30,0.04,,,0.67,VWS V14.01,2013-02-24 00:52:00,
2013-02-23 16:58:00,35.6,7.2,30.09,WNW,301,0.0,3.6,30,0.04,,,0.67,VWS V14.01,2013-02-24 00:58:00,
2013-02-23 17:03:00,35.6,7.2,30.09,WNW,301,2.2,2.2,30,0.04,,,0.67,VWS V14.01,2013-02-24 01:03:00,
2013-02-23 17:08:00,35.4,7.1,30.09,WNW,292,0.0,0.0,30,0.04,,,0.67,VWS V14.01,2013-02-24 01:08:00,
2013-02-23 17:13:00,35.2,6.9,30.09,WNW,292,0.0,0.0,30,0.04,,,0.67,VWS V14.01,2013-02-24 01:13:00,
2013-02-23 17:18:00,35.2,6.9,30.09,WNW,292,0.0,0.0,30,0.04,,,0.67,VWS V14.01,2013-02-24 01:18:00,
2013-02-23 17:24:00,35.1,6.8,30.11,WNW,292,0.0,0.0,30,0.04,,,0.67,VWS V14.01,2013-02-24 01:24:00,
2013-02-23 17:30:00,34.7,6.4,30.11,WNW,292,0.0,0.0,30,0.04,,,0.67,VWS V14.01,2013-02-24 01:30:00,
2013-02-23 17:35:00,34.7,6.4,30.11,WNW,288,0.0,0.0,30,0.04,,,0.67,VWS V14.01,2013-02-24 01:35:00,
2013-02-23 17:41:00,34.7,6.4,30.11,NW,324,0.0,2.7,30,0.04,,,0.67,VWS V14.01,2013-02-24 01:41:00,
2013-02-23 17:46:00,34.5,6.3,30.11,West,263,0.0,0.0,30,0.00,,,0.67,VWS V14.01,2013-02-24 01:46:00,
2013-02-23 17:51:00,34.5,6.3,30.11,West,263,0.0,0.0,30,0.00,,,0.67,VWS V14.01,2013-02-24 01:51:00,
2013-02-23 17:57:00,34.3,6.1,30.11,WSW,252,0.0,0.0,30,0.00,,,0.67,VWS V14.01,2013-02-24 01:57:00,
2013-02-23 18:03:00,34.3,6.1,30.11,West,266,0.0,0.0,30,0.00,,,0.67,VWS V14.01,2013-02-24 02:03:00,
2013-02-23 18:08:00,34.2,6.0,30.11,West,266,0.0,0.0,30,0.00,,,0.67,VWS V14.01,2013-02-24 02:08:00,
2013-02-23 18:14:00,34.0,5.8,30.11,West,266,0.0,0.0,30,0.00,,,0.67,VWS V14.01,2013-02-24 02:14:00,
2013-02-23 18:19:00,34.2,6.0,30.11,West,266,0.0,0.0,30,0.00,,,0.67,VWS V14.01,2013-02-24 02:19:00,
2013-02-23 18:24:00,34.0,5.8,30.11,West,266,0.0,0.0,30,0.00,,,0.67,VWS V14.01,2013-02-24 02:24:00,
2013-02-23 18:30:00,34.0,5.8,30.11,West,267,0.0,2.2,30,0.00,,,0.67,VWS V14.01,2013-02-24 02:30:00,
2013-02-23 18:36:00,34.0,5.8,30.14,West,267,0.0,0.0,30,0.00,,,0.67,VWS V14.01,2013-02-24 02:36:00,
2013-02-23 18:42:00,34.5,6.3,30.14,SW,214,2.7,2.7,30,0.00,,,0.67,VWS V14.01,2013-02-24 02:42:00,
2013-02-23 18:48:00,34.5,6.3,30.14,West,263,0.0,0.0,30,0.00,,,0.67,VWS V14.01,2013-02-24 02:48:00,
2013-02-23 18:53:00,34.5,6.3,30.14,West,274,0.0,0.0,30,0.00,,,0.67,VWS V14.01,2013-02-24 02:53:00,
2013-02-23 18:58:00,34.5,6.3,30.14,West,274,0.0,0.0,30,0.00,,,0.67,VWS V14.01,2013-02-24 02:58:00,
2013-02-23 19:03:00,34.2,6.0,30.14,West,274,0.0,0.0,30,0.00,,,0.67,VWS V14.01,2013-02-24 03:03:00,
2013-02-23 19:09:00,34.2,6.0,30.14,West,274,0.0,0.0,30,0.00,,,0.67,VWS V14.01,2013-02-24 03:09:00,
2013-02-23 19:14:00,34.0,5.8,30.14,West,274,0.0,0.0,30,0.00,,,0.67,VWS V14.01,2013-02-24 03:14:00,
2013-02-23 19:20:00,33.8,5.7,30.14,West,277,0.0,0.0,30,0.00,,,0.67,VWS V14.01,2013-02-24 03:20:00,
2013-02-23 19:25:00,33.6,5.5,30.14,West,277,0.0,0.0,30,0.00,,,0.67,VWS V14.01,2013-02-24 03:25:00,
2013-02-23 19:30:00,33.6,5.5,30.14,West,277,0.0,0.0,30,0.00,,,0.67,VWS V14.01,2013-02-24 03:30:00,
2013-02-23 19:35:00,33.3,5.2,30.14,West,277,0.0,0.0,30,0.00,,,0.67,VWS V14.01,2013-02-24 03:35:00,
2013-02-23 19:41:00,33.1,5.0,30.14,West,277,0.0,0.0,30,0.00,,,0.67,VWS V14.01,2013-02-24 03:41:00,
2013-02-23 19:47:00,33.1,5.0,30.14,West,277,0.0,0.0,30,0.00,,,0.67,VWS V14.01,2013-02-24 03:47:00,
2013-02-23 19:52:00,33.1,5.0,30.14,West,277,0.0,0.0,30,0.00,,,0.67,VWS V14.01,2013-02-24 03:52:00,
2013-02-23 19:58:00,33.1,5.0,30.14,West,277,0.0,0.0,30,0.00,,,0.67,VWS V14.01,2013-02-24 03:58:00,
2013-02-23 20:04:00,33.3,5.2,30.14,West,277,0.0,0.0,30,0.00,,,0.67,VWS V14.01,2013-02-24 04:04:00,
2013-02-23 20:09:00,33.3,5.2,30.14,West,277,0.0,0.0,30,0.00,,,0.67,VWS V14.01,2013-02-24 04:09:00,
2013-02-23 20:14:00,33.3,5.2,30.14,West,277,0.0,0.0,30,0.00,,,0.67,VWS V14.01,2013-02-24 04:14:00,
2013-02-23 20:19:00,33.1,5.0,30.14,West,277,0.0,0.0,30,0.00,,,0.67,VWS V14.01,2013-02-24 04:19:00,
2013-02-23 20:25:00,32.7,4.7,30.17,West,277,0.0,0.0,30,0.00,,,0.67,VWS V14.01,2013-02-24 04:25:00,
2013-02-23 20:30:00,33.1,5.0,30.17,West,277,0.0,0.0,30,0.00,,,0.67,VWS V14.01,2013-02-24 04:30:00,
2013-02-23 20:36:00,33.6,5.5,30.17,West,276,0.0,0.0,30,0.00,,,0.67,VWS V14.01,2013-02-24 04:36:00,
2013-02-23 20:42:00,33.8,5.7,30.17,West,276,0.0,0.0,30,0.00,,,0.67,VWS V14.01,2013-02-24 04:42:00,
2013-02-23 20:47:00,33.8,5.7,30.17,North,0,0.0,0.0,30,0.00,,,0.67,VWS V14.01,2013-02-24 04:47:00,
2013-02-23 20:52:00,33.8,5.7,30.17,North,0,0.0,0.0,30,0.00,,,0.67,VWS V14.01,2013-02-24 04:52:00,
2013-02-23 20:58:00,33.1,5.0,30.17,North,353,0.0,0.0,30,0.00,,,0.67,VWS V14.01,2013-02-24 04:58:00,
2013-02-23 21:00:00,32.9,4.9,30.17,North,353,0.0,0.0,30,0.00,,,0.67,VWS V14.01,2013-02-24 05:00:00,
2013-02-23 21:03:00,32.7,4.7,30.17,North,353,0.0,0.0,30,0.00,,,0.67,VWS V14.01,2013-02-24 05:03:00,
2013-02-23 21:04:00,32.7,4.7,30.17,SSW,196,2.7,2.7,30,0.00,,,0.67,VWS V14.01,2013-02-24 05:04:00,
2013-02-23 21:09:00,32.7,4.7,30.17,North,357,0.0,0.0,30,0.00,,,0.67,VWS V14.01,2013-02-24 05:09:00,
2013-02-23 21:12:00,32.5,4.6,30.17,WNW,301,0.0,0.0,30,0.00,,,0.67,VWS V14.01,2013-02-24 05:12:00,
2013-02-23 21:18:00,32.7,4.7,30.17,NNW,339,3.1,5.4,30,0.00,,,0.67,VWS V14.01,2013-02-24 05:18:00,
2013-02-23 21:24:00,33.4,5.3,30.17,WNW,292,2.7,5.4,30,0.00,,,0.67,VWS V14.01,2013-02-24 05:24:00,
2013-02-23 21:29:00,33.1,5.0,30.17,South,183,0.0,3.1,30,0.00,,,0.67,VWS V14.01,2013-02-24 05:29:00,
2013-02-23 21:35:00,32.9,4.9,30.17,NNW,328,0.0,2.7,30,0.00,,,0.67,VWS V14.01,2013-02-24 05:35:00,
2013-02-23 21:41:00,32.9,4.9,30.17,NNW,328,0.0,0.0,30,0.00,,,0.67,VWS V14.01,2013-02-24 05:41:00,
2013-02-23 21:46:00,33.1,5.0,30.17,NNW,328,0.0,0.0,30,0.00,,,0.67,VWS V14.01,2013-02-24 05:46:00,
2013-02-23 21:52:00,33.1,5.0,30.17,NNW,328,0.0,0.0,30,0.00,,,0.67,VWS V14.01,2013-02-24 05:52:00,
2013-02-23 21:57:00,32.9,4.9,30.17,NNW,328,0.0,0.0,30,0.00,,,0.67,VWS V14.01,2013-02-24 05:57:00,
2013-02-23 22:03:00,32.9,4.9,30.17,NNW,328,0.0,0.0,30,0.00,,,0.67,VWS V14.01,2013-02-24 06:03:00,
2013-02-23 22:09:00,33.1,5.0,30.17,NNW,328,0.0,0.0,30,0.00,,,0.67,VWS V14.01,2013-02-24 06:09:00,
2013-02-23 22:14:00,33.1,5.0,30.17,NNW,328,0.0,0.0,30,0.00,,,0.67,VWS V14.01,2013-02-24 06:14:00,
2013-02-23 22:19:00,33.4,5.3,30.17,NNW,328,0.0,0.0,30,0.00,,,0.67,VWS V14.01,2013-02-24 06:19:00,
2013-02-23 22:25:00,33.4,5.3,30.17,WNW,296,0.0,0.0,30,0.00,,,0.67,VWS V14.01,2013-02-24 06:25:00,
2013-02-23 22:31:00,33.4,5.3,30.17,NNW,332,0.0,0.0,30,0.00,,,0.67,VWS V14.01,2013-02-24 06:31:00,
2013-02-23 22:36:00,32.9,4.9,30.17,NNW,332,0.0,0.0,30,0.00,,,0.67,VWS V14.01,2013-02-24 06:36:00,
2013-02-23 22:42:00,32.5,4.6,30.17,NW,304,0.0,0.0,30,0.00,,,0.67,VWS V14.01,2013-02-24 06:42:00,
2013-02-23 22:48:00,32.4,4.4,30.17,NW,304,0.0,0.0,30,0.00,,,0.67,VWS V14.01,2013-02-24 06:48:00,
2013-02-23 22:53:00,32.2,4.2,30.17,NW,304,0.0,0.0,30,0.00,,,0.67,VWS V14.01,2013-02-24 06:53:00,
2013-02-23 22:59:00,32.4,4.4,30.17,North,5,0.0,0.0,30,0.00,,,0.67,VWS V14.01,2013-02-24 06:59:00,
2013-02-23 23:04:00,32.5,4.6,30.17,North,357,0.0,0.0,30,0.00,,,0.67,VWS V14.01,2013-02-24 07:04:00,
2013-02-23 23:09:00,32.5,4.6,30.17,South,191,0.0,0.0,30,0.00,,,0.67,VWS V14.01,2013-02-24 07:09:00,
2013-02-23 23:15:00,32.7,4.7,30.17,NW,324,0.0,0.0,30,0.00,,,0.67,VWS V14.01,2013-02-24 07:15:00,
2013-02-23 23:21:00,32.9,4.9,30.17,South,169,0.0,0.0,30,0.00,,,0.67,VWS V14.01,2013-02-24 07:21:00,
2013-02-23 23:26:00,32.9,4.9,30.20,South,170,0.0,0.0,30,0.00,,,0.67,VWS V14.01,2013-02-24 07:26:00,
2013-02-23 23:31:00,32.9,4.9,30.20,West,277,0.0,0.0,30,0.00,,,0.67,VWS V14.01,2013-02-24 07:31:00,
2013-02-23 23:37:00,32.7,4.7,30.20,WNW,292,0.0,0.0,30,0.00,,,0.67,VWS V14.01,2013-02-24 07:37:00,
2013-02-23 23:42:00,32.7,4.7,30.20,WNW,292,0.0,0.0,30,0.00,,,0.67,VWS V14.01,2013-02-24 07:42:00,
2013-02-23 23:47:00,32.7,4.7,30.20,WNW,292,0.0,0.0,30,0.00,,,0.67,VWS V14.01,2013-02-24 07:47:00,
2013-02-23 23:52:00,32.7,4.7,30.20,ENE,64,0.0,0.0,30,0.00,,,0.67,VWS V14.01,2013-02-24 07:52:00,
2013-02-23 23:59:00,32.7,4.7,30.20,ENE,64,0.0,0.0,30,0.00,,,0.67,VWS V14.01,2013-02-24 07:59:00,